Showing default

S-NET C, 43189

Orbit data source: Space-Track

S-NET C, 43189 is a payload satellite owned by TUB (DE) in SSO that was launched on Thu, 01 Feb 2018 UTC via a SOYUZ-2-1A launch vehicle from the Vostochny Cosmodrome (VOSTO). Payload-class satellites include a variety of spacecraft equipped with specific instruments for various scientific and technological missions. These include communications satellites like Starlink; space stations such as the ISS; scientific satellites like the Hubble; Earth observation satellites from companies like Planet Labs, Umbra, and HawkEye 360; GPS; miniature CubeSats for education and research; and military/defense satellites.

Loading next visibility...
Identifier
43189, 2018-014K
Orbit
SSO
Country
Flag of DEDE / GER
Related business
Manufacturer
TUB
Mission
Operational Commercial Com/Tech
Bus & Motor
TUBIX10, Unknown motor
Mass
8 kg wet, 8 kg dry
Launch date (UTC)
2018-02-01 (8 years ago)
Launch vehicle
SOYUZ-2-1A
Launch site
Vostochny Cosmodrome (VOSTO)
Object type
Payload
Rocket body
Debris
Shape & HBR
Box, 0.1 m
Radar Cross Section
0.086 m², Medium (>0.1 m² and < 1m²)

Expand to show TLE details & history
Last TLE update: 1 day ago

TLE from 1 day ago
0 S-NET C
1 43189U 18014K   25259.69482103  .00005641  00000-0  32523-3 0  9999
2 43189  97.5529 161.7583 0009433 225.9112 134.1343 15.12746749415900
Epoch: 2025-09-16T16:40Z
TLE epoch observation values (Epoch: 2025-09-16T16:40:32.536Z)
Latitude
-0.00007°
Longitude
-84.2587°
Altitude
535.444 km
Speed
7.592 km/s
True Right ascension
10h 47m 01s
True Declination
0° 00' 00"
Sunlit
Object was in daylight at epoch
Visualization orbit readout
Latitude
Unknown
Longitude
Unknown
Altitude
Unknown
Speed
Unknown
Apparent Right ascension
Unknown
Apparent Declination
Unknown
Sunlit
N/A
Visualization observer readout
Local Sidereal Time
14:10:34
Azimuth
Unknown
Elevation
Unknown
Doppler factor
Unknown
Orbital elements
Apogee altitude
531.321 km
Perigee altitude
518.298 km
Semi-major axis
6,902.947 km
Eccentricity
0.00094
Inclination
97.5529°
RAAN
161.7583°
Arg. of periapsis
225.9112°
True anomaly
134.21182°
Mean anomaly
134.1343°
Eccentric anomaly
134.17306°
Mean motion
3.78435 °/min
Orbital period
95.13 mins
BSTAR
0.00032523
Loading maneuver chart data...
Computing Atmospheric mass density...
Loading historical data...
Loading historical data...
Loading historical data...
Loading historical data...
Loading historical data...
Loading historical data...
Loading historical data...

Documentation

Showing up to 5 results
|